TimeEST,TemperatureF,Dew PointF,Humidity,Sea Level PressureIn,VisibilityMPH,Wind Direction,Wind SpeedMPH,Gust SpeedMPH,PrecipitationIn,Events,Conditions,WindDirDegrees,DateUTC
12:53 AM,55.0,50.0,83,30.04,10.0,Calm,Calm,-,N/A,,Mostly Cloudy,0,2012-12-25 05:53:00
1:53 AM,55.0,51.1,86,30.03,10.0,Calm,Calm,-,N/A,,Mostly Cloudy,0,2012-12-25 06:53:00
2:53 AM,55.9,53.1,90,30.01,10.0,Calm,Calm,-,N/A,,Scattered Clouds,0,2012-12-25 07:53:00
3:53 AM,54.0,53.1,97,30.01,10.0,Calm,Calm,-,N/A,,Scattered Clouds,0,2012-12-25 08:53:00
4:53 AM,53.1,52.0,96,30.01,10.0,SSE,3.5,-,N/A,,Scattered Clouds,160,2012-12-25 09:53:00
5:53 AM,53.1,51.1,93,30.02,10.0,Calm,Calm,-,N/A,,Scattered Clouds,0,2012-12-25 10:53:00
6:53 AM,54.0,53.1,97,30.03,10.0,Calm,Calm,-,N/A,Fog,Patches of Fog,0,2012-12-25 11:53:00
7:53 AM,55.0,54.0,96,30.05,10.0,Calm,Calm,-,N/A,Fog,Patches of Fog,0,2012-12-25 12:53:00
8:53 AM,60.1,57.9,93,30.06,10.0,Calm,Calm,-,N/A,,Mostly Cloudy,0,2012-12-25 13:53:00
9:53 AM,70.0,59.0,68,30.05,10.0,SSE,4.6,-,N/A,,Mostly Cloudy,160,2012-12-25 14:53:00
10:53 AM,73.0,57.0,57,30.04,10.0,South,11.5,-,N/A,,Mostly Cloudy,170,2012-12-25 15:53:00
11:53 AM,73.9,57.9,57,30.01,10.0,South,10.4,-,N/A,,Mostly Cloudy,180,2012-12-25 16:53:00
12:53 PM,73.9,57.9,57,29.98,10.0,SE,10.4,-,N/A,,Overcast,140,2012-12-25 17:53:00
1:53 PM,73.9,57.0,55,29.95,10.0,SSE,10.4,-,N/A,,Overcast,160,2012-12-25 18:53:00
2:53 PM,73.9,57.0,55,29.94,10.0,South,8.1,-,N/A,,Overcast,170,2012-12-25 19:53:00
3:53 PM,73.9,57.0,55,29.94,10.0,SSE,4.6,-,N/A,,Overcast,160,2012-12-25 20:53:00
4:53 PM,72.0,57.9,61,29.94,10.0,SE,4.6,-,N/A,,Overcast,130,2012-12-25 21:53:00
5:53 PM,69.1,59.0,70,29.94,10.0,ESE,6.9,-,N/A,,Overcast,110,2012-12-25 22:53:00
6:53 PM,68.0,60.1,76,29.92,10.0,ESE,8.1,-,N/A,,Overcast,110,2012-12-25 23:53:00
7:53 PM,66.9,60.1,79,29.95,10.0,ESE,4.6,-,N/A,,Mostly Cloudy,110,2012-12-26 00:53:00
8:53 PM,64.9,60.1,84,29.97,10.0,SE,3.5,-,N/A,,Mostly Cloudy,130,2012-12-26 01:53:00
9:53 PM,64.9,60.1,84,29.95,10.0,SE,8.1,-,N/A,,Mostly Cloudy,140,2012-12-26 02:53:00
10:53 PM,66.0,59.0,78,29.94,10.0,SE,9.2,-,N/A,,Partly Cloudy,140,2012-12-26 03:53:00
11:53 PM,64.0,59.0,84,29.94,10.0,SSE,8.1,-,N/A,,Partly Cloudy,160,2012-12-26 04:53:00